Total_Precipitation_Accumulation
2.40 1.69 1.17 0.47 0.30 0.26 0.38 0.48 0.43 0.25 0.36 0.76 0.71 0.40 0.21 0.14 0.15 0.10 0.06 0.24 0.62 1.07 1.00 0.86 0.87 1.11 1.43 1.92 3.29 3.19 3.74 3.73 3.43 3.46 3.70 2.70 2.18 3.00 2.47 2.19 2.74 2.68 3.09 3.69
2.31 1.18 0.34 0.37 0.35 0.39 0.55 0.68 0.53 0.33 0.24 0.50 0.55 0.27 0.37 0.31 0.16 0.21 0.22 0.42 0.75 0.84 0.68 0.55 0.66 1.07 1.29 1.48 2.74 3.57 3.56 3.66 3.32 3.18 3.86 3.41 2.88 3.01 3.59 3.06 3.18 3.41 3.14 4.08
1.78 0.63 0.36 0.55 0.63 0.54 0.51 0.61 0.46 0.48 0.36 0.46 0.51 0.40 0.16 0.12 0.11 0.07 0.12 0.30 0.57 0.77 0.40 0.44 0.46 0.65 1.64 1.71 1.83 2.96 3.82 4.02 3.66 3.80 4.47 4.88 4.35 4.04 3.85 3.35 3.10 3.17 3.27 4.06
1.36 0.63 0.59 0.78 0.63 0.51 0.59 0.30 0.30 0.38 0.81 0.91 0.71 1.10 0.08 0.06 0.13 0.09 0.19 0.44 0.72 0.53 0.62 0.58 0.41 0.43 0.69 1.27 1.64 2.48 3.54 4.73 4.56 4.78 5.18 4.65 4.02 3.77 3.97 3.60 3.32 3.11 2.81 3.45
1.47 0.76 0.64 1.02 0.74 0.36 0.45 0.21 0.19 0.47 0.82 1.10 0.70 1.49 0.42 0.17 0.42 0.45 0.94 0.81 1.55 1.28 1.41 1.17 0.48 0.53 0.75 0.91 1.22 2.03 3.20 4.21 5.77 5.57 5.12 4.84 4.47 3.89 4.07 3.57 3.13 2.49 2.43 2.45
1.00 0.70 0.78 0.80 0.80 0.52 0.43 0.60 0.56 0.62 1.29 2.27 0.62 0.87 0.50 0.21 0.34 0.21 0.52 0.69 1.57 2.08 1.81 1.64 1.64 1.06 0.99 1.22 1.23 1.60 3.14 3.44 4.53 5.76 5.65 4.12 4.35 4.77 5.03 4.43 3.51 3.04 2.48 2.60
1.79 1.18 0.75 0.78 1.41 1.18 1.37 2.00 2.57 2.08 2.41 1.54 0.22 0.51 0.70 0.13 0.08 0.19 0.62 0.88 1.68 2.36 2.10 2.15 2.24 2.10 2.09 2.06 1.76 1.63 2.18 3.60 2.94 4.77 4.72 4.27 3.01 3.48 4.31 5.16 4.00 3.34 3.00 2.52
1.32 1.35 1.01 0.77 1.51 2.04 1.35 2.04 2.54 1.67 0.74 0.38 0.13 0.53 0.44 0.06 0.02 0.06 0.56 0.74 1.39 1.69 2.11 1.55 1.90 2.10 1.86 1.73 1.69 0.91 1.56 2.98 3.07 2.99 4.08 3.99 3.64 2.50 3.28 3.97 3.76 3.30 2.81 2.65
0.96 0.75 0.53 0.54 0.57 1.40 1.83 1.87 1.10 1.71 0.81 0.72 0.32 0.21 0.12 0.01 0.00 0.00 0.16 0.66 1.35 1.28 1.28 1.45 1.82 1.65 1.31 0.73 1.52 1.43 1.23 1.58 2.68 2.75 3.42 4.08 4.14 2.92 2.75 3.27 3.51 2.43 2.20 2.38
0.90 1.27 0.54 0.66 0.97 1.25 1.63 1.36 1.63 2.74 1.95 0.80 0.23 0.35 0.41 0.16 0.08 0.03 0.03 0.19 0.33 0.61 0.75 0.87 0.98 1.29 1.09 0.98 1.57 2.04 1.28 1.39 1.67 2.76 2.77 3.85 4.06 3.75 3.20 3.16 3.17 2.87 2.00 1.72
1.12 1.58 0.90 1.04 1.37 1.50 1.69 2.88 1.86 1.76 0.99 1.30 0.68 0.68 0.69 0.46 0.38 0.36 0.20 0.17 0.19 0.24 0.30 0.24 0.16 0.16 0.44 0.77 1.20 1.59 1.67 1.37 1.56 1.93 2.90 3.70 5.12 3.67 4.55 4.05 3.05 2.83 2.27 1.63
1.00 1.89 1.27 0.61 0.75 0.79 1.14 1.66 2.04 1.77 1.18 1.10 1.41 1.21 0.44 0.64 0.71 0.88 0.70 0.48 0.33 0.31 0.16 0.18 0.10 0.05 0.20 0.46 0.72 1.48 2.32 1.54 2.02 2.15 2.92 3.12 3.87 4.67 4.50 5.42 4.43 3.28 2.79 1.85
1.41 2.09 1.56 1.13 1.48 1.01 1.50 1.30 1.78 2.03 2.12 1.74 2.10 1.73 0.67 0.67 0.73 1.04 0.97 0.69 0.64 0.43 0.28 0.17 0.07 0.08 0.09 0.20 0.41 0.82 1.52 1.38 1.63 1.67 2.15 2.72 2.73 3.56 4.23 5.39 5.98 4.92 4.10 3.02
1.29 1.44 1.36 1.35 1.47 1.65 1.35 0.97 1.45 2.72 3.42 1.52 1.81 1.60 1.25 0.98 0.88 1.01 0.84 0.86 0.80 0.71 0.63 0.51 0.32 0.21 0.30 0.46 0.42 0.32 0.69 1.02 1.13 1.18 1.55 2.23 2.67 2.51 3.25 3.65 4.35 4.10 4.21 4.09
1.37 1.60 1.09 0.54 0.36 1.11 1.29 1.31 1.44 2.43 1.95 2.22 1.94 1.50 1.69 1.78 1.96 1.76 1.52 1.26 0.89 0.79 0.88 0.58 0.43 0.28 0.33 0.59 0.73 0.56 0.50 0.50 0.94 1.00 1.01 1.18 2.11 1.87 2.02 2.92 2.96 3.65 3.26 3.60
0.91 1.57 1.37 0.91 0.52 0.74 1.18 1.09 1.36 1.52 1.55 1.78 1.25 1.16 1.41 1.62 1.44 1.35 1.29 1.21 1.11 1.35 1.23 0.74 0.51 0.29 0.28 0.42 0.60 0.73 0.70 0.49 0.52 0.72 0.58 0.93 1.54 1.61 1.62 1.89 2.47 2.79 3.35 3.67
0.96 1.22 1.52 0.97 0.59 0.97 1.80 1.78 1.42 1.25 1.43 1.74 1.96 1.89 1.59 1.51 1.39 1.71 1.69 1.75 1.84 2.00 1.69 1.23 0.76 0.58 0.43 0.32 0.43 0.86 0.77 0.62 0.58 0.73 0.71 0.68 1.03 1.14 1.21 1.56 1.71 2.41 2.97 2.95
0.49 0.84 1.48 1.11 0.91 1.62 1.43 1.05 1.04 1.26 1.36 1.36 1.25 1.36 1.54 1.51 1.17 1.47 1.61 2.22 2.17 2.44 2.04 1.57 1.20 0.93 0.48 0.38 0.41 0.85 1.00 0.77 0.96 0.80 0.97 1.09 1.06 1.07 1.09 1.52 1.62 1.51 2.06 2.56
0.27 0.56 1.13 0.95 0.68 0.52 0.25 0.16 0.45 0.92 1.26 0.84 0.80 0.74 0.81 0.61 0.64 0.91 0.65 1.19 1.94 2.58 2.47 2.16 2.08 1.41 0.89 0.70 0.73 0.92 1.00 0.84 0.69 0.93 1.14 0.98 1.04 1.04 1.09 1.74 2.00 1.93 2.33 2.79
0.10 0.36 1.15 0.87 0.87 0.33 0.20 0.03 0.08 0.28 1.05 0.57 0.77 0.80 0.82 0.74 0.98 1.09 1.08 1.45 1.72 2.13 2.61 3.01 2.29 1.39 0.99 0.86 0.99 1.10 1.00 0.89 0.83 0.95 1.02 1.14 1.27 1.42 1.40 1.82 2.14 1.78 1.68 1.87
0.48 0.64 0.90 0.65 1.12 0.27 0.04 0.00 0.07 0.42 0.72 0.48 0.75 0.98 1.06 1.31 1.65 1.58 1.53 1.47 1.60 1.93 2.59 2.86 2.08 1.55 1.20 1.48 1.65 1.70 1.58 1.47 1.41 1.39 1.72 1.57 1.72 1.86 1.63 1.52 1.81 1.79 1.60 1.47
0.54 0.60 0.55 0.52 0.96 0.37 0.03 0.03 0.23 0.38 0.16 0.30 0.55 0.85 1.12 0.90 0.67 0.66 0.88 1.08 1.50 1.97 2.91 3.55 2.87 2.34 2.52 2.74 2.34 2.31 2.47 2.51 1.93 1.50 1.39 1.45 1.47 1.34 1.34 1.36 1.39 1.50 1.67 1.61
0.69 0.55 0.44 0.26 0.21 0.11 0.06 0.07 0.07 0.07 0.19 0.24 0.61 0.59 0.79 0.66 0.48 0.39 0.56 0.72 1.02 1.61 2.72 3.74 3.80 3.31 2.51 2.39 2.34 2.61 2.39 2.29 2.10 1.88 1.44 1.31 1.34 1.33 1.23 1.44 1.62 1.68 1.68 1.75
0.22 0.16 0.21 0.23 0.14 0.19 0.28 0.22 0.12 0.09 0.17 0.31 0.39 0.35 0.26 0.39 0.32 0.22 0.23 0.43 0.77 1.13 2.29 3.48 3.22 2.86 2.37 2.35 2.62 2.41 2.46 2.03 1.99 2.21 2.22 1.65 1.55 1.87 1.71 1.69 1.77 1.79 1.61 1.46
0.27 0.20 0.18 0.19 0.29 0.27 0.16 0.09 0.12 0.18 0.27 0.23 0.12 0.14 0.23 0.25 0.18 0.22 0.23 0.31 0.60 0.96 1.68 2.83 3.37 3.38 2.82 2.83 3.14 2.76 2.56 2.34 2.12 1.97 2.34 2.17 1.81 1.74 1.77 1.74 1.75 1.77 1.64 1.31
0.24 0.28 0.35 0.33 0.20 0.41 0.21 0.05 0.05 0.14 0.16 0.16 0.24 0.20 0.16 0.26 0.29 0.25 0.22 0.22 0.47 0.83 1.35 1.99 2.90 3.27 3.27 3.28 3.24 2.92 2.87 2.80 2.13 1.81 1.62 2.03 1.88 1.62 1.51 1.55 1.83 1.91 1.97 1.90